Stündliche Wetter Cegielsko

Heute, 19 Januar, Dienstag

Zeit Temperatur Niederschläge Wind Luftdruck Luftfeuchtigkeit
00:00 -1°C° 0.2 mm 4 m/S 754 mmHg 98%
01:00 -1°C° 0 mm 4 m/S 754 mmHg 98%
02:00 -1°C° 0.3 mm 4 m/S 753 mmHg 98%
03:00 -1°C° 0.3 mm 5 m/S 753 mmHg 98%
04:00 0°C° 0.3 mm 5 m/S 753 mmHg 98%
05:00 0°C° 0.2 mm 4 m/S 753 mmHg 98%
06:00 0°C° 0.2 mm 4 m/S 753 mmHg 98%
07:00 -1°C° 0 mm 4 m/S 752 mmHg 98%
08:00 -1°C° 0 mm 4 m/S 752 mmHg 98%
09:00 -1°C° 0 mm 4 m/S 752 mmHg 97%
10:00 -1°C° 0 mm 4 m/S 752 mmHg 97%
11:00 -1°C° 0 mm 4 m/S 751 mmHg 97%
12:00 0°C° 0 mm 4 m/S 751 mmHg 98%
13:00 +1°C° 0 mm 3 m/S 751 mmHg 98%
14:00 -1°C° 0.4 mm 4 m/S 750 mmHg 98%
15:00 -1°C° 0.4 mm 4 m/S 749 mmHg 98%
16:00 -1°C° 0.4 mm 4 m/S 749 mmHg 97%
17:00 -1°C° 0.3 mm 4 m/S 748 mmHg 98%
18:00 -1°C° 0.3 mm 4 m/S 748 mmHg 98%
19:00 -1°C° 0.3 mm 4 m/S 748 mmHg 98%
20:00 -1°C° 0.1 mm 4 m/S 747 mmHg 98%
21:00 -1°C° 0.1 mm 4 m/S 747 mmHg 98%
22:00 -1°C° 0.1 mm 4 m/S 747 mmHg 98%
23:00 0°C° 0.6 mm 4 m/S 747 mmHg 98%

Morgen, 20 Januar, Mittwoch

Zeit Temperatur Niederschläge Wind Luftdruck Luftfeuchtigkeit
00:00 0°C° 0.6 mm 4 m/S 747 mmHg 98%
01:00 +1°C° 0.6 mm 4 m/S 747 mmHg 98%
02:00 +1°C° 0.4 mm 5 m/S 747 mmHg 96%
03:00 +2°C° 0.4 mm 6 m/S 747 mmHg 95%
04:00 +2°C° 0.4 mm 6 m/S 747 mmHg 94%
05:00 +1°C° 0 mm 6 m/S 747 mmHg 93%
06:00 +1°C° 0 mm 5 m/S 747 mmHg 92%
07:00 0°C° 0 mm 5 m/S 747 mmHg 91%
08:00 0°C° 0 mm 5 m/S 747 mmHg 90%
09:00 0°C° 0 mm 5 m/S 747 mmHg 88%
10:00 +1°C° 0 mm 5 m/S 748 mmHg 86%
11:00 +1°C° 0 mm 5 m/S 747 mmHg 85%
12:00 +2°C° 0 mm 5 m/S 747 mmHg 84%
13:00 +2°C° 0 mm 5 m/S 747 mmHg 83%
14:00 +3°C° 0 mm 4 m/S 747 mmHg 83%
15:00 +1°C° 0 mm 4 m/S 746 mmHg 83%
16:00 +1°C° 0 mm 4 m/S 746 mmHg 83%
17:00 +1°C° 0 mm 4 m/S 746 mmHg 83%
18:00 0°C° 0 mm 4 m/S 746 mmHg 82%
19:00 0°C° 0 mm 4 m/S 746 mmHg 82%
20:00 0°C° 0 mm 4 m/S 746 mmHg 82%
21:00 0°C° 0 mm 4 m/S 746 mmHg 81%
22:00 0°C° 0 mm 4 m/S 746 mmHg 80%
23:00 0°C° 0 mm 4 m/S 746 mmHg 80%

übermorgen, 21 Januar, Donnerstag

Zeit Temperatur Niederschläge Wind Luftdruck Luftfeuchtigkeit
00:00 +1°C° 0 mm 3 m/S 746 mmHg 79%
01:00 +1°C° 0 mm 3 m/S 746 mmHg 78%
02:00 +1°C° 0 mm 3 m/S 746 mmHg 77%
03:00 +1°C° 0 mm 3 m/S 745 mmHg 77%
04:00 +1°C° 0 mm 3 m/S 745 mmHg 76%
05:00 +1°C° 0 mm 3 m/S 745 mmHg 77%
06:00 0°C° 0 mm 3 m/S 745 mmHg 77%
07:00 -1°C° 0 mm 4 m/S 745 mmHg 78%
08:00 0°C° 0 mm 4 m/S 745 mmHg 79%
09:00 0°C° 0 mm 4 m/S 745 mmHg 81%
10:00 +1°C° 0 mm 5 m/S 745 mmHg 82%
11:00 +1°C° 0 mm 5 m/S 745 mmHg 81%
12:00 +3°C° 0 mm 4 m/S 745 mmHg 80%
13:00 +4°C° 0 mm 4 m/S 745 mmHg 79%
14:00 +3°C° 0 mm 4 m/S 744 mmHg 82%
15:00 +3°C° 0 mm 4 m/S 744 mmHg 84%
16:00 +1°C° 0 mm 4 m/S 743 mmHg 87%
17:00 +1°C° 0 mm 4 m/S 743 mmHg 86%
18:00 +1°C° 0 mm 4 m/S 743 mmHg 85%
19:00 0°C° 0 mm 4 m/S 744 mmHg 83%
20:00 0°C° 0 mm 4 m/S 743 mmHg 83%
21:00 0°C° 0 mm 4 m/S 743 mmHg 83%
22:00 0°C° 0 mm 4 m/S 743 mmHg 82%
23:00 0°C° 0 mm 4 m/S 742 mmHg 81%

22 Januar, Freitag

Zeit Temperatur Niederschläge Wind Luftdruck Luftfeuchtigkeit
00:00 0°C° 0 mm 4 m/S 742 mmHg 80%
01:00 0°C° 0 mm 4 m/S 741 mmHg 80%
02:00 0°C° 0 mm 4 m/S 741 mmHg 79%
03:00 0°C° 0 mm 4 m/S 740 mmHg 79%
04:00 0°C° 0 mm 4 m/S 740 mmHg 78%
05:00 0°C° 0 mm 4 m/S 739 mmHg 81%
06:00 +1°C° 0 mm 3 m/S 739 mmHg 83%
07:00 +1°C° 0 mm 3 m/S 739 mmHg 85%
08:00 +1°C° 0 mm 4 m/S 738 mmHg 84%
09:00 +1°C° 0 mm 4 m/S 738 mmHg 83%
10:00 +3°C° 0 mm 4 m/S 738 mmHg 81%
11:00 +4°C° 0 mm 4 m/S 738 mmHg 81%
12:00 +5°C° 0 mm 5 m/S 738 mmHg 80%
13:00 +5°C° 0 mm 5 m/S 738 mmHg 79%
14:00 +5°C° 0 mm 4 m/S 739 mmHg 82%
15:00 +4°C° 0 mm 4 m/S 739 mmHg 85%
16:00 +3°C° 0 mm 3 m/S 739 mmHg 88%
17:00 +2°C° 0 mm 3 m/S 740 mmHg 88%
18:00 +2°C° 0 mm 3 m/S 740 mmHg 89%
19:00 +2°C° 0 mm 3 m/S 741 mmHg 90%
20:00 +1°C° 0 mm 3 m/S 741 mmHg 91%
21:00 +1°C° 0 mm 3 m/S 741 mmHg 91%
22:00 +1°C° 0 mm 3 m/S 741 mmHg 91%
23:00 +1°C° 0 mm 3 m/S 741 mmHg 91%

23 Januar, Samstag

Zeit Temperatur Niederschläge Wind Luftdruck Luftfeuchtigkeit
00:00 +1°C° 0 mm 3 m/S 742 mmHg 91%
01:00 +1°C° 0 mm 3 m/S 742 mmHg 91%
02:00 0°C° 0 mm 3 m/S 742 mmHg 91%
03:00 0°C° 0 mm 3 m/S 742 mmHg 92%
04:00 0°C° 0 mm 3 m/S 742 mmHg 92%
05:00 +1°C° 0 mm 2 m/S 742 mmHg 92%
06:00 +1°C° 0 mm 2 m/S 742 mmHg 92%
07:00 +1°C° 0 mm 2 m/S 742 mmHg 92%
08:00 +1°C° 0 mm 2 m/S 742 mmHg 91%
09:00 +2°C° 0 mm 2 m/S 743 mmHg 90%
10:00 +2°C° 0 mm 2 m/S 743 mmHg 88%
11:00 +3°C° 0 mm 2 m/S 742 mmHg 87%
12:00 +4°C° 0 mm 1 m/S 742 mmHg 85%
13:00 +4°C° 0 mm 1 m/S 742 mmHg 83%
14:00 +4°C° 0 mm 1 m/S 741 mmHg 85%
15:00 +3°C° 0 mm 1 m/S 741 mmHg 87%
16:00 +3°C° 0 mm 1 m/S 740 mmHg 89%
17:00 +3°C° 0 mm 1 m/S 740 mmHg 90%
18:00 +2°C° 0 mm 1 m/S 739 mmHg 91%
19:00 +2°C° 0 mm 1 m/S 739 mmHg 92%
20:00 +2°C° 0 mm 1 m/S 738 mmHg 92%
21:00 +1°C° 0 mm 2 m/S 738 mmHg 92%
22:00 +1°C° 0 mm 2 m/S 737 mmHg 92%
23:00 0°C° 0.4 mm 3 m/S 737 mmHg 94%

24 Januar, Sonntag

Zeit Temperatur Niederschläge Wind Luftdruck Luftfeuchtigkeit
00:00 -1°C° 0.4 mm 3 m/S 736 mmHg 95%
01:00 -2°C° 0.4 mm 4 m/S 736 mmHg 97%
02:00 -2°C° 1.1 mm 4 m/S 735 mmHg 97%
03:00 -2°C° 1.1 mm 5 m/S 735 mmHg 98%
04:00 -2°C° 1.1 mm 5 m/S 734 mmHg 98%
05:00 -2°C° 0.6 mm 5 m/S 734 mmHg 98%
06:00 -2°C° 0.6 mm 5 m/S 734 mmHg 98%
07:00 -2°C° 0.6 mm 5 m/S 734 mmHg 98%
08:00 -2°C° 0.4 mm 5 m/S 734 mmHg 97%
09:00 -2°C° 0.4 mm 5 m/S 734 mmHg 97%
10:00 -3°C° 0.4 mm 6 m/S 734 mmHg 97%
11:00 -2°C° 0.1 mm 6 m/S 734 mmHg 97%
12:00 -2°C° 0.1 mm 6 m/S 734 mmHg 97%
13:00 -2°C° 0.1 mm 6 m/S 734 mmHg 97%
14:00 -2°C° 0.5 mm 6 m/S 734 mmHg 97%
15:00 -2°C° 0.5 mm 7 m/S 734 mmHg 97%
16:00 -2°C° 0.5 mm 8 m/S 735 mmHg 97%
17:00 -2°C° 0.4 mm 8 m/S 735 mmHg 97%
18:00 -2°C° 0.4 mm 7 m/S 735 mmHg 97%
19:00 -2°C° 0.4 mm 7 m/S 735 mmHg 97%
20:00 -2°C° 0.2 mm 7 m/S 736 mmHg 94%
21:00 -2°C° 0.2 mm 7 m/S 736 mmHg 91%
22:00 -2°C° 0.2 mm 7 m/S 737 mmHg 89%
23:00 -2°C° 0 mm 7 m/S 737 mmHg 88%
Mehr zeigen

Wir brauchen deine Erlaubnis

Meteoprog und unser Service Anbieter werden persönliche Daten aufbewahren, so wie Cookies, Geräte Bezeichnung oder ähnliche Technologien von deinem Gerät und Prozess, so wie Persönliche Daten Inhalte und Werbungen, genauso wie social Media und den Verkehr zu analysieren.

  • Aufbewahrung und/oder Zugang zu deiner Geräte Informationen.

    Cookies, Geräte Bezeichnung oder andere Informationen, können aufbewahrt oder Zugang zu deinem Gerät erhalten, für den Grund, der oben angegeben wird.

  • Personalisierte Werbung und Inhalte, Messungen, Einblick in das Publikum und Produkt Entwicklung.

    Werbungen und Inhalte können personalisiert werden, basierend auf ein Profil. Mehr Daten können besser personalisierte Werbungen und Inhalte hinzufügen. Werbung und Inhalte können gezeigt und gemessen werden. Einblicke über das Publikum, welche die Werbung gesehen haben und den Inhalt, können abgeleitet werden. So wie Daten können genutzt werden, um es zu verbessern oder die Benutzer Erfahrung zu verbessern das System und die Software.

Wenn du “Ich stimme zu” klickst, erlaubst du uns, die Cookies zu benutzen die Geräte Bezeichnung, den Web oder ähnliche Technologien zu benutzen. Deine Settings, können in deinem Gerät bei deinem Browser geändert werden.

Für den bestimmten Zweck, berechtigten Interessen beruhen darauf, mehr als auf den Inhalt. Du kannst mehr darüber in unseren Privaten und Cookie Politik lesen.